Location: Piotrkow Trybunalski
(51.4000°N, 19.6830°E)
Time: 15:50:10
(UTC+01:00)

Vanguard 2 - Pass Details

Date: 15 February 2023
Orbit: 553 x 2927 km, 32.9° (Epoch: 24 March)

Event Time Altitude Azimuth Distance (km) Brightness Sun altitude
Rises 23:04:26 0° 260° (W) 5,109 11.8 -49.8°
Enters shadow 23:07:22 - 251° (WSW) 4,638 11.5 -49.9°
Reaches altitude 10° 23:08:32 10° 246° (WSW) 4,488 - -50.0°
Maximum altitude 23:17:27 22° 203° (SSW) 4,220 - -50.4°
Drops below altitude 10° 23:28:29 10° 162° (SSE) 5,639 - -50.7°
Sets 23:34:40 0° 149° (SSE) 6,764 - -50.9°
